When you browse on this site, cookies collect data to enhance your experience and personalize the content and advertising you see.
Visit our Privacy Policy to learn more. By continuing to use the site, you agree to this use of cookies and data.
  • En España
  • Lista de países
  • Para 7 días
  • Temperatura del agua
  • El tiempo en el mapa
  • Informadores
  • user-avatar
    Iniciar sesión

    Tiempo cada hora Limache

    Hoy, 24 Enero, Viernes

    Tiempo Temperatura Precipitaciones Viento Presión Humedad
    00:00 +15°C° 0 mm 0 mps 750 mmHg 92%
    01:00 +15°C° 0 mm 0 mps 750 mmHg 91%
    02:00 +15°C° 0 mm 0 mps 749 mmHg 91%
    03:00 +15°C° 0 mm 0 mps 749 mmHg 91%
    04:00 +15°C° 0 mm 0 mps 749 mmHg 90%
    05:00 +18°C° 0 mm 0 mps 749 mmHg 81%
    06:00 +20°C° 0 mm 0 mps 750 mmHg 71%
    07:00 +23°C° 0 mm 0 mps 750 mmHg 61%
    08:00 +27°C° 0 mm 1 mps 750 mmHg 55%
    09:00 +29°C° 0 mm 2 mps 750 mmHg 49%
    10:00 +31°C° 0 mm 3 mps 750 mmHg 42%
    11:00 +31°C° 0 mm 3 mps 750 mmHg 41%
    12:00 +33°C° 0 mm 4 mps 750 mmHg 40%
    13:00 +33°C° 0 mm 4 mps 750 mmHg 38%
    14:00 +32°C° 0 mm 4 mps 750 mmHg 40%
    15:00 +30°C° 0 mm 3 mps 749 mmHg 42%
    16:00 +29°C° 0 mm 3 mps 749 mmHg 43%
    17:00 +26°C° 0 mm 2 mps 750 mmHg 55%
    18:00 +23°C° 0 mm 2 mps 750 mmHg 66%
    19:00 +19°C° 0 mm 1 mps 750 mmHg 78%
    20:00 +18°C° 0 mm 1 mps 750 mmHg 79%
    21:00 +15°C° 0 mm 0 mps 750 mmHg 80%
    22:00 +14°C° 0 mm 0 mps 750 mmHg 82%
    23:00 +14°C° 0 mm 0 mps 749 mmHg 82%

    Mañana, 25 Enero, Sábado

    Tiempo Temperatura Precipitaciones Viento Presión Humedad
    00:00 +14°C° 0 mm 0 mps 749 mmHg 82%
    01:00 +14°C° 0 mm 0 mps 749 mmHg 82%
    02:00 +14°C° 0 mm 0 mps 749 mmHg 81%
    03:00 +14°C° 0 mm 0 mps 749 mmHg 81%
    04:00 +14°C° 0 mm 0 mps 749 mmHg 81%
    05:00 +17°C° 0 mm 0 mps 749 mmHg 72%
    06:00 +20°C° 0 mm 0 mps 749 mmHg 64%
    07:00 +22°C° 0 mm 0 mps 750 mmHg 55%
    08:00 +27°C° 0 mm 1 mps 750 mmHg 48%
    09:00 +29°C° 0 mm 2 mps 750 mmHg 41%
    10:00 +33°C° 0 mm 3 mps 750 mmHg 34%
    11:00 +33°C° 0 mm 3 mps 750 mmHg 32%
    12:00 +34°C° 0 mm 4 mps 750 mmHg 30%
    13:00 +34°C° 0 mm 4 mps 750 mmHg 29%
    14:00 +33°C° 0 mm 4 mps 750 mmHg 29%
    15:00 +31°C° 0 mm 3 mps 750 mmHg 30%
    16:00 +31°C° 0 mm 3 mps 749 mmHg 30%
    17:00 +27°C° 0 mm 2 mps 750 mmHg 42%
    18:00 +23°C° 0 mm 1 mps 750 mmHg 54%
    19:00 +19°C° 0 mm 1 mps 750 mmHg 66%
    20:00 +19°C° 0 mm 1 mps 750 mmHg 70%
    21:00 +16°C° 0 mm 0 mps 751 mmHg 74%
    22:00 +15°C° 0 mm 0 mps 751 mmHg 77%
    23:00 +14°C° 0 mm 0 mps 750 mmHg 76%

    Pasado mañana, 26 Enero, Domingo

    Tiempo Temperatura Precipitaciones Viento Presión Humedad
    00:00 +14°C° 0 mm 0 mps 750 mmHg 75%
    01:00 +14°C° 0 mm 0 mps 750 mmHg 74%
    02:00 +14°C° 0 mm 0 mps 750 mmHg 74%
    03:00 +14°C° 0 mm 0 mps 750 mmHg 74%
    04:00 +14°C° 0 mm 0 mps 750 mmHg 73%
    05:00 +17°C° 0 mm 0 mps 750 mmHg 62%
    06:00 +20°C° 0 mm 0 mps 751 mmHg 51%
    07:00 +23°C° 0 mm 0 mps 751 mmHg 40%
    08:00 +28°C° 0 mm 1 mps 751 mmHg 36%
    09:00 +30°C° 0 mm 2 mps 751 mmHg 31%
    10:00 +33°C° 0 mm 3 mps 751 mmHg 26%
    11:00 +34°C° 0 mm 3 mps 751 mmHg 25%
    12:00 +34°C° 0 mm 4 mps 751 mmHg 24%
    13:00 +35°C° 0 mm 4 mps 750 mmHg 23%
    14:00 +34°C° 0 mm 4 mps 750 mmHg 25%
    15:00 +33°C° 0 mm 4 mps 750 mmHg 28%
    16:00 +33°C° 0 mm 3 mps 749 mmHg 30%
    17:00 +28°C° 0 mm 2 mps 750 mmHg 44%
    18:00 +24°C° 0 mm 2 mps 750 mmHg 59%
    19:00 +20°C° 0 mm 1 mps 750 mmHg 73%
    20:00 +19°C° 0 mm 1 mps 750 mmHg 75%
    21:00 +16°C° 0 mm 0 mps 750 mmHg 76%
    22:00 +15°C° 0 mm 0 mps 750 mmHg 78%
    23:00 +15°C° 0 mm 0 mps 749 mmHg 77%

    27 Enero, Lunes

    Tiempo Temperatura Precipitaciones Viento Presión Humedad
    00:00 +15°C° 0 mm 0 mps 749 mmHg 77%
    01:00 +15°C° 0 mm 0 mps 748 mmHg 76%
    02:00 +15°C° 0 mm 0 mps 748 mmHg 77%
    03:00 +15°C° 0 mm 0 mps 748 mmHg 77%
    04:00 +15°C° 0 mm 0 mps 748 mmHg 77%
    05:00 +18°C° 0 mm 0 mps 749 mmHg 67%
    06:00 +21°C° 0 mm 0 mps 749 mmHg 57%
    07:00 +26°C° 0 mm 1 mps 749 mmHg 47%
    08:00 +28°C° 0 mm 1 mps 749 mmHg 42%
    09:00 +30°C° 0 mm 2 mps 749 mmHg 38%
    10:00 +33°C° 0 mm 3 mps 749 mmHg 33%
    11:00 +34°C° 0 mm 3 mps 749 mmHg 33%
    12:00 +34°C° 0 mm 4 mps 749 mmHg 33%
    13:00 +34°C° 0 mm 4 mps 749 mmHg 33%
    14:00 +33°C° 0 mm 4 mps 749 mmHg 35%
    15:00 +33°C° 0 mm 3 mps 749 mmHg 37%
    16:00 +31°C° 0 mm 3 mps 749 mmHg 39%
    17:00 +27°C° 0 mm 2 mps 749 mmHg 51%
    18:00 +23°C° 0 mm 2 mps 749 mmHg 63%
    19:00 +19°C° 0 mm 1 mps 749 mmHg 75%
    20:00 +18°C° 0 mm 1 mps 749 mmHg 77%
    21:00 +16°C° 0 mm 0 mps 749 mmHg 79%
    22:00 +15°C° 0 mm 0 mps 749 mmHg 81%
    23:00 +14°C° 0 mm 0 mps 748 mmHg 81%

    28 Enero, Martes

    Tiempo Temperatura Precipitaciones Viento Presión Humedad
    00:00 +14°C° 0 mm 0 mps 748 mmHg 82%
    01:00 +14°C° 0 mm 0 mps 748 mmHg 82%
    02:00 +14°C° 0 mm 0 mps 748 mmHg 83%
    03:00 +14°C° 0 mm 0 mps 747 mmHg 83%
    04:00 +14°C° 0 mm 0 mps 747 mmHg 84%
    05:00 +16°C° 0 mm 0 mps 748 mmHg 75%
    06:00 +21°C° 0 mm 1 mps 748 mmHg 66%
    07:00 +24°C° 0 mm 1 mps 748 mmHg 57%
    08:00 +26°C° 0 mm 2 mps 748 mmHg 50%
    09:00 +28°C° 0 mm 2 mps 748 mmHg 43%
    10:00 +31°C° 0 mm 3 mps 749 mmHg 37%
    11:00 +32°C° 0 mm 4 mps 749 mmHg 35%
    12:00 +32°C° 0 mm 4 mps 749 mmHg 33%
    13:00 +32°C° 0 mm 4 mps 748 mmHg 31%
    14:00 +30°C° 0 mm 4 mps 749 mmHg 32%
    15:00 +29°C° 0 mm 4 mps 749 mmHg 34%
    16:00 +29°C° 0 mm 3 mps 749 mmHg 35%
    17:00 +25°C° 0 mm 2 mps 749 mmHg 50%
    18:00 +21°C° 0 mm 2 mps 749 mmHg 64%
    19:00 +18°C° 0 mm 1 mps 749 mmHg 78%
    20:00 +16°C° 0 mm 1 mps 749 mmHg 80%
    21:00 +15°C° 0 mm 1 mps 749 mmHg 82%
    22:00 +14°C° 0 mm 0 mps 749 mmHg 84%
    23:00 +14°C° 0 mm 0 mps 748 mmHg 84%

    29 Enero, Miércoles

    Tiempo Temperatura Precipitaciones Viento Presión Humedad
    00:00 +13°C° 0 mm 0 mps 748 mmHg 84%
    01:00 +13°C° 0 mm 0 mps 747 mmHg 84%
    02:00 +13°C° 0 mm 0 mps 747 mmHg 84%
    03:00 +13°C° 0 mm 0 mps 748 mmHg 84%
    04:00 +12°C° 0 mm 0 mps 748 mmHg 84%
    05:00 +16°C° 0 mm 1 mps 748 mmHg 76%
    06:00 +19°C° 0 mm 1 mps 748 mmHg 68%
    07:00 +22°C° 0 mm 1 mps 748 mmHg 60%
    08:00 +24°C° 0 mm 2 mps 749 mmHg 52%
    09:00 +26°C° 0 mm 2 mps 749 mmHg 45%
    10:00 +29°C° 0 mm 3 mps 749 mmHg 38%
    11:00 +29°C° 0 mm 3 mps 749 mmHg 38%
    12:00 +30°C° 0 mm 4 mps 749 mmHg 37%
    13:00 +30°C° 0 mm 4 mps 749 mmHg 37%
    14:00 +29°C° 0 mm 4 mps 749 mmHg 39%
    15:00 +28°C° 0 mm 4 mps 749 mmHg 42%
    16:00 +28°C° 0 mm 3 mps 749 mmHg 44%
    17:00 +24°C° 0 mm 3 mps 749 mmHg 57%
    18:00 +20°C° 0 mm 2 mps 749 mmHg 69%
    19:00 +16°C° 0 mm 1 mps 750 mmHg 81%
    20:00 +16°C° 0 mm 1 mps 750 mmHg 83%
    21:00 +15°C° 0 mm 1 mps 750 mmHg 84%
    22:00 +14°C° 0 mm 1 mps 750 mmHg 85%
    23:00 +14°C° 0 mm 1 mps 749 mmHg 83%
    Mostrar más